| time (UTC) | temp F | wind direction | speed MPH | gust MPH | rain 1hr in | rain 24hr in | rain mn in | humidity % | barometer mb |
| 20260831103204 | 67 | 334 | 5.0 | 8.0 | 0.00 | 0.00 | 0.00 | 64 | 1014.4 |
| 20260831102704 | 67 | 322 | 3.0 | 6.0 | 0.00 | 0.00 | 0.00 | 64 | 1014.5 |
| 20260831102204 | 67 | 322 | 3.0 | 8.0 | 0.00 | 0.00 | 0.00 | 64 | 1014.4 |
| 20260831101704 | 67 | 322 | 3.0 | 9.0 | 0.00 | 0.00 | 0.00 | 64 | 1014.4 |
| 20260831101205 | 67 | 321 | 5.0 | 10.0 | 0.00 | 0.00 | 0.00 | 64 | 1014.3 |
| 20260831100204 | 67 | 315 | 6.0 | 10.0 | 0.00 | 0.00 | 0.00 | 64 | 1014.3 |
| 20260831095704 | 68 | 305 | 6.0 | 9.0 | 0.00 | 0.00 | 0.00 | 64 | 1014.4 |
| 20260831095205 | 68 | 313 | 5.0 | 9.0 | 0.00 | 0.00 | 0.00 | 65 | 1014.4 |
| 20260831094704 | 67 | 319 | 5.0 | 8.0 | 0.00 | 0.00 | 0.00 | 66 | 1014.4 |
| 20260831094205 | 68 | 320 | 4.0 | 5.0 | 0.00 | 0.00 | 0.00 | 66 | 1014.4 |
| 20260831093705 | 68 | 321 | 4.0 | 5.0 | 0.00 | 0.00 | 0.00 | 65 | 1014.4 |
| 20260831093204 | 68 | 321 | 3.0 | 6.0 | 0.00 | 0.00 | 0.00 | 65 | 1014.4 |
| 20260831092704 | 68 | 321 | 3.0 | 6.0 | 0.00 | 0.00 | 0.00 | 65 | 1014.4 |
| 20260831092204 | 68 | 321 | 3.0 | 6.0 | 0.00 | 0.00 | 0.00 | 65 | 1014.4 |
| 20260831091704 | 68 | 321 | 4.0 | 8.0 | 0.00 | 0.00 | 0.00 | 66 | 1014.4 |
| 20260831091204 | 68 | 316 | 4.0 | 8.0 | 0.00 | 0.00 | 0.00 | 65 | 1014.3 |
| 20260831090704 | 68 | 316 | 5.0 | 8.0 | 0.00 | 0.00 | 0.00 | 66 | 1014.3 |
| 20260831090205 | 68 | 317 | 5.0 | 10.0 | 0.00 | 0.00 | 0.00 | 66 | 1014.3 |
| 20260831085705 | 68 | 322 | 6.0 | 10.0 | 0.00 | 0.00 | 0.00 | 66 | 1014.2 |
| 20260831085204 | 68 | 325 | 6.0 | 10.0 | 0.00 | 0.00 | 0.00 | 67 | 1014.3 |
| 20260831084204 | 68 | 309 | 6.0 | 10.0 | 0.00 | 0.00 | 0.00 | 66 | 1014.3 |
| 20260831083704 | 68 | 307 | 5.0 | 9.0 | 0.00 | 0.00 | 0.00 | 66 | 1014.4 |
| 20260831083204 | 68 | 315 | 5.0 | 11.0 | 0.00 | 0.00 | 0.00 | 66 | 1014.4 |
| 20260831082705 | 68 | 319 | 6.0 | 13.0 | 0.00 | 0.00 | 0.00 | 66 | 1014.5 |
| 20260831082204 | 68 | 342 | 8.0 | 14.0 | 0.00 | 0.00 | 0.00 | 67 | 1014.6 |
| 20260831081204 | 69 | 313 | 10.0 | 14.0 | 0.00 | 0.00 | 0.00 | 67 | 1014.6 |
| 20260831080704 | 69 | 307 | 10.0 | 14.0 | 0.00 | 0.00 | 0.00 | 67 | 1014.6 |
| 20260831075704 | 69 | 303 | 10.0 | 15.0 | 0.00 | 0.00 | 0.00 | 66 | 1014.7 |
| 20260831074704 | 69 | 316 | 9.0 | 14.0 | 0.00 | 0.00 | 0.00 | 64 | 1015.0 |
| 20260831074204 | 69 | 296 | 9.0 | 13.0 | 0.00 | 0.00 | 0.00 | 64 | 1015.0 |
| 20260831073704 | 69 | 315 | 9.0 | 13.0 | 0.00 | 0.00 | 0.00 | 63 | 1015.0 |
| 20260831073204 | 69 | 314 | 8.0 | 13.0 | 0.00 | 0.00 | 0.00 | 63 | 1015.0 |
| 20260831072204 | 70 | 325 | 6.0 | 11.0 | 0.00 | 0.00 | 0.00 | 62 | 1015.0 |
| 20260831071704 | 70 | 309 | 6.0 | 12.0 | 0.00 | 0.00 | 0.00 | 60 | 1015.0 |
| 20260831071205 | 70 | 329 | 8.0 | 12.0 | 0.00 | 0.00 | 0.00 | 60 | 1014.9 |
| 20260831070204 | 70 | 321 | 8.0 | 12.0 | 0.00 | 0.00 | 0.00 | 59 | 1014.7 |
| 20260831065704 | 70 | 319 | 8.0 | 12.0 | 0.00 | 0.00 | 0.00 | 59 | 1014.9 |
| 20260831065204 | 71 | 303 | 7.0 | 12.0 | 0.00 | 0.00 | 0.00 | 59 | 1014.9 |
| 20260831064704 | 71 | 314 | 7.0 | 11.0 | 0.00 | 0.00 | 0.00 | 58 | 1014.9 |
| 20260831063704 | 71 | 321 | 7.0 | 11.0 | 0.00 | 0.00 | 0.00 | 59 | 1015.0 |
| 20260831063204 | 71 | 315 | 8.0 | 15.0 | 0.00 | 0.00 | 0.00 | 58 | 1014.9 |
| 20260831062704 | 71 | 313 | 8.0 | 15.0 | 0.00 | 0.00 | 0.00 | 58 | 1015.0 |
| 20260831061704 | 71 | 310 | 7.0 | 13.0 | 0.00 | 0.00 | 0.00 | 57 | 1014.9 |
| 20260831061204 | 71 | 309 | 6.0 | 11.0 | 0.00 | 0.00 | 0.00 | 57 | 1014.9 |
| 20260831060704 | 71 | 315 | 7.0 | 11.0 | 0.00 | 0.00 | 0.00 | 57 | 1014.9 |
| 20260831060205 | 71 | 318 | 7.0 | 11.0 | 0.00 | 0.00 | 0.00 | 57 | 1014.9 |
| 20260831055704 | 71 | 311 | 7.0 | 14.0 | 0.00 | 0.00 | 0.00 | 56 | 1014.9 |
| 20260831055204 | 72 | 317 | 8.0 | 14.0 | 0.00 | 0.00 | 0.00 | 55 | 1014.9 |
| 20260831054704 | 72 | 327 | 8.0 | 14.0 | 0.00 | 0.00 | 0.00 | 55 | 1015.0 |
| 20260831054205 | 72 | 313 | 9.0 | 13.0 | 0.00 | 0.00 | 0.00 | 55 | 1015.1 |
| 20260831052704 | 73 | 315 | 6.0 | 10.0 | 0.00 | 0.00 | 0.00 | 50 | 1015.0 |
| 20260831052204 | 73 | 311 | 6.0 | 10.0 | 0.00 | 0.00 | 0.00 | 49 | 1014.9 |
| 20260831051704 | 74 | 306 | 6.0 | 10.0 | 0.00 | 0.00 | 0.00 | 47 | 1014.9 |
| 20260831050704 | 74 | 316 | 6.0 | 10.0 | 0.00 | 0.00 | 0.00 | 46 | 1015.0 |
| 20260831045705 | 74 | 311 | 7.0 | 11.0 | 0.00 | 0.00 | 0.00 | 47 | 1015.0 |
| 20260831045204 | 74 | 306 | 7.0 | 11.0 | 0.00 | 0.00 | 0.00 | 46 | 1014.9 |
| 20260831044704 | 74 | 310 | 6.0 | 10.0 | 0.00 | 0.00 | 0.00 | 46 | 1014.9 |
| 20260831044204 | 74 | 313 | 5.0 | 11.0 | 0.00 | 0.00 | 0.00 | 46 | 1014.9 |
| 20260831043704 | 75 | 300 | 6.0 | 11.0 | 0.00 | 0.00 | 0.00 | 45 | 1014.9 |
| 20260831043204 | 75 | 288 | 7.0 | 11.0 | 0.00 | 0.00 | 0.00 | 44 | 1014.9 |
| 20260831042704 | 76 | 295 | 8.0 | 11.0 | 0.00 | 0.00 | 0.00 | 42 | 1014.9 |
| 20260831042204 | 76 | 291 | 7.0 | 11.0 | 0.00 | 0.00 | 0.00 | 39 | 1014.9 |
| 20260831041704 | 77 | 293 | 7.0 | 11.0 | 0.00 | 0.00 | 0.00 | 37 | 1014.7 |
| 20260831041204 | 78 | 302 | 6.0 | 11.0 | 0.00 | 0.00 | 0.00 | 34 | 1014.6 |
| 20260831040704 | 78 | 299 | 5.0 | 7.0 | 0.00 | 0.00 | 0.00 | 32 | 1014.6 |
| 20260831040205 | 78 | 317 | 3.0 | 5.0 | 0.00 | 0.00 | 0.00 | 32 | 1014.6 |
| 20260831035704 | 79 | 321 | 2.0 | 3.0 | 0.00 | 0.00 | 0.00 | 32 | 1014.5 |
| 20260831035204 | 79 | 321 | 1.0 | 3.0 | 0.00 | 0.00 | 0.00 | 32 | 1014.5 |
| 20260831034704 | 79 | 321 | 1.0 | 4.0 | 0.00 | 0.00 | 0.00 | 32 | 1014.4 |
| 20260831034204 | 79 | 321 | 1.0 | 6.0 | 0.00 | 0.00 | 0.00 | 31 | 1014.3 |
| 20260831033704 | 80 | 321 | 2.0 | 6.0 | 0.00 | 0.00 | 0.00 | 31 | 1014.3 |
| 20260831033204 | 80 | 321 | 3.0 | 8.0 | 0.00 | 0.00 | 0.00 | 31 | 1014.2 |
| 20260831032704 | 80 | 321 | 4.0 | 8.0 | 0.00 | 0.00 | 0.00 | 30 | 1014.1 |
| 20260831032204 | 80 | 318 | 5.0 | 8.0 | 0.00 | 0.00 | 0.00 | 30 | 1014.0 |
| 20260831031704 | 80 | 323 | 5.0 | 8.0 | 0.00 | 0.00 | 0.00 | 30 | 1013.9 |
| 20260831030704 | 81 | 358 | 3.0 | 8.0 | 0.00 | 0.00 | 0.00 | 30 | 1013.8 |
| 20260831030204 | 81 | 358 | 3.0 | 8.0 | 0.00 | 0.00 | 0.00 | 30 | 1013.8 |
| 20260831025704 | 81 | 347 | 4.0 | 8.0 | 0.00 | 0.00 | 0.00 | 29 | 1013.8 |
| 20260831025204 | 81 | 358 | 4.0 | 10.0 | 0.00 | 0.00 | 0.00 | 28 | 1013.6 |
| 20260831024704 | 82 | 358 | 5.0 | 10.0 | 0.00 | 0.00 | 0.00 | 27 | 1013.8 |
| 20260831023705 | 82 | 358 | 7.0 | 17.0 | 0.00 | 0.00 | 0.00 | 27 | 1013.5 |
| 20260831023204 | 83 | 358 | 8.0 | 17.0 | 0.00 | 0.00 | 0.00 | 26 | 1013.5 |
| 20260831022704 | 83 | 358 | 10.0 | 17.0 | 0.00 | 0.00 | 0.00 | 26 | 1013.4 |
| 20260831022204 | 83 | 358 | 9.0 | 17.0 | 0.00 | 0.00 | 0.00 | 26 | 1013.3 |
| 20260831020704 | 84 | 358 | 10.0 | 17.0 | 0.00 | 0.00 | 0.00 | 27 | 1013.1 |
| 20260831020204 | 84 | 358 | 10.0 | 16.0 | 0.00 | 0.00 | 0.00 | 26 | 1013.1 |
| 20260831015204 | 85 | 358 | 11.0 | 18.0 | 0.00 | 0.00 | 0.00 | 25 | 1013.1 |
| 20260831014704 | 85 | 313 | 12.0 | 21.0 | 0.00 | 0.00 | 0.00 | 25 | 1013.0 |
| 20260831013704 | 86 | 315 | 13.0 | 21.0 | 0.00 | 0.00 | 0.00 | 25 | 1013.1 |
| 20260831013204 | 86 | 321 | 12.0 | 21.0 | 0.00 | 0.00 | 0.00 | 25 | 1013.0 |
| 20260831012704 | 86 | 338 | 13.0 | 21.0 | 0.00 | 0.00 | 0.00 | 25 | 1013.0 |
| 20260831012205 | 87 | 316 | 13.0 | 19.0 | 0.00 | 0.00 | 0.00 | 25 | 1013.0 |
| 20260831011204 | 87 | 311 | 13.0 | 19.0 | 0.00 | 0.00 | 0.00 | 25 | 1013.0 |
| 20260831010705 | 87 | 302 | 12.0 | 21.0 | 0.00 | 0.00 | 0.00 | 25 | 1013.1 |
| 20260831010205 | 88 | 261 | 12.0 | 21.0 | 0.00 | 0.00 | 0.00 | 24 | 1013.0 |
| 20260831005704 | 88 | 277 | 13.0 | 21.0 | 0.00 | 0.00 | 0.00 | 25 | 1013.0 |
| 20260831005205 | 88 | 298 | 14.0 | 20.0 | 0.00 | 0.00 | 0.00 | 25 | 1013.1 |
| 20260831004704 | 88 | 294 | 13.0 | 19.0 | 0.00 | 0.00 | 0.00 | 25 | 1013.0 |
| 20260831004205 | 89 | 306 | 13.0 | 19.0 | 0.00 | 0.00 | 0.00 | 25 | 1013.0 |
| 20260831003704 | 89 | 277 | 13.0 | 24.0 | 0.00 | 0.00 | 0.00 | 25 | 1013.0 |
| 20260831003204 | 89 | 311 | 14.0 | 24.0 | 0.00 | 0.00 | 0.00 | 25 | 1012.9 |
| 20260831002704 | 89 | 263 | 14.0 | 24.0 | 0.00 | 0.00 | 0.00 | 25 | 1012.9 |
| 20260831002206 | 90 | 300 | 12.0 | 18.0 | 0.00 | 0.00 | 0.00 | 24 | 1012.9 |
| 20260831001704 | 90 | 300 | 10.0 | 18.0 | 0.00 | 0.00 | 0.00 | 23 | 1012.9 |
| 20260831001204 | 90 | 296 | 10.0 | 20.0 | 0.00 | 0.00 | 0.00 | 23 | 1012.9 |
| 20260831000704 | 90 | 321 | 11.0 | 20.0 | 0.00 | 0.00 | 0.00 | 23 | 1012.9 |
| 20260831000206 | 90 | 3 | 12.0 | 18.0 | 0.00 | 0.00 | 0.00 | 22 | 1012.9 |
| 20260830235704 | 90 | 3 | 12.0 | 19.0 | 0.00 | 0.00 | 0.00 | 22 | 1012.9 |
| 20260830235204 | 90 | 21 | 13.0 | 19.0 | 0.00 | 0.00 | 0.00 | 22 | 1012.9 |
| 20260830234204 | 91 | 348 | 10.0 | 20.0 | 0.00 | 0.00 | 0.00 | 21 | 1012.9 |
| 20260830233704 | 91 | 345 | 11.0 | 20.0 | 0.00 | 0.00 | 0.00 | 21 | 1012.9 |
| 20260830233203 | 90 | 10 | 12.0 | 20.0 | 0.00 | 0.00 | 0.00 | 22 | 1012.9 |
| 20260830232704 | 91 | 55 | 10.0 | 18.0 | 0.00 | 0.00 | 0.00 | 21 | 1012.9 |
| 20260830232204 | 92 | 3 | 9.0 | 18.0 | 0.00 | 0.00 | 0.00 | 22 | 1013.0 |
| 20260830231704 | 91 | 315 | 10.0 | 18.0 | 0.00 | 0.00 | 0.00 | 23 | 1013.0 |
| 20260830231204 | 91 | 327 | 8.0 | 16.0 | 0.00 | 0.00 | 0.00 | 23 | 1013.0 |
| 20260830225704 | 91 | 309 | 10.0 | 23.0 | 0.00 | 0.00 | 0.00 | 24 | 1013.1 |
| 20260830225204 | 91 | 330 | 11.0 | 23.0 | 0.00 | 0.00 | 0.00 | 24 | 1013.2 |
| 20260830224704 | 91 | 291 | 12.0 | 23.0 | 0.00 | 0.00 | 0.00 | 24 | 1013.2 |
| 20260830224204 | 91 | 287 | 11.0 | 21.0 | 0.00 | 0.00 | 0.00 | 25 | 1013.3 |
| 20260830223704 | 92 | 304 | 11.0 | 18.0 | 0.00 | 0.00 | 0.00 | 25 | 1013.3 |
| 20260830222204 | 91 | 278 | 9.0 | 18.0 | 0.00 | 0.00 | 0.00 | 26 | 1013.5 |
| 20260830221205 | 91 | 262 | 7.0 | 18.0 | 0.00 | 0.00 | 0.00 | 25 | 1013.8 |
| 20260830220204 | 91 | 282 | 8.0 | 18.0 | 0.00 | 0.00 | 0.00 | 25 | 1013.9 |
| 20260830215704 | 91 | 317 | 7.0 | 13.0 | 0.00 | 0.00 | 0.00 | 25 | 1013.9 |
| 20260830214204 | 92 | 330 | 7.0 | 14.0 | 0.00 | 0.00 | 0.00 | 24 | 1014.1 |
| 20260830213704 | 92 | 309 | 8.0 | 17.0 | 0.00 | 0.00 | 0.00 | 25 | 1014.1 |
| 20260830213204 | 91 | 334 | 9.0 | 20.0 | 0.00 | 0.00 | 0.00 | 26 | 1014.2 |
| 20260830212705 | 91 | 265 | 11.0 | 20.0 | 0.00 | 0.00 | 0.00 | 26 | 1014.2 |
| 20260830212206 | 90 | 304 | 11.0 | 20.0 | 0.00 | 0.00 | 0.00 | 26 | 1014.3 |
| 20260830210705 | 91 | 277 | 6.0 | 14.0 | 0.00 | 0.00 | 0.00 | 25 | 1014.5 |
| 20260830210204 | 91 | 259 | 4.0 | 7.0 | 0.00 | 0.00 | 0.00 | 25 | 1014.6 |
| 20260830205204 | 92 | 217 | 3.0 | 5.0 | 0.00 | 0.00 | 0.00 | 23 | 1014.7 |
| 20260830203704 | 89 | 57 | 4.0 | 12.0 | 0.00 | 0.00 | 0.00 | 23 | 1015.0 |
| 20260830203204 | 89 | 22 | 4.0 | 10.0 | 0.00 | 0.00 | 0.00 | 23 | 1015.0 |
| 20260830202705 | 89 | 319 | 5.0 | 10.0 | 0.00 | 0.00 | 0.00 | 25 | 1015.0 |
| 20260830201704 | 90 | 22 | 4.0 | 11.0 | 0.00 | 0.00 | 0.00 | 24 | 1015.1 |
| 20260830200704 | 89 | 36 | 6.0 | 13.0 | 0.00 | 0.00 | 0.00 | 25 | 1015.2 |
| 20260830195705 | 90 | 20 | 6.0 | 13.0 | 0.00 | 0.00 | 0.00 | 26 | 1015.1 |
| 20260830195204 | 91 | 338 | 5.0 | 10.0 | 0.00 | 0.00 | 0.00 | 25 | 1015.2 |
| 20260830194704 | 91 | 342 | 4.0 | 10.0 | 0.00 | 0.00 | 0.00 | 24 | 1015.2 |
| 20260830193704 | 92 | 37 | 4.0 | 8.0 | 0.00 | 0.00 | 0.00 | 22 | 1015.2 |
| 20260830193205 | 93 | 32 | 3.0 | 7.0 | 0.00 | 0.00 | 0.00 | 21 | 1015.2 |
| 20260830192704 | 93 | 82 | 2.0 | 7.0 | 0.00 | 0.00 | 0.00 | 21 | 1015.3 |
| 20260830192204 | 92 | 29 | 2.0 | 8.0 | 0.00 | 0.00 | 0.00 | 22 | 1015.4 |
| 20260830191205 | 90 | 71 | 3.0 | 10.0 | 0.00 | 0.00 | 0.00 | 23 | 1015.4 |
| 20260830190704 | 89 | 254 | 4.0 | 10.0 | 0.00 | 0.00 | 0.00 | 25 | 1015.4 |
| 20260830190204 | 89 | 252 | 4.0 | 8.0 | 0.00 | 0.00 | 0.00 | 23 | 1015.5 |
| 20260830185204 | 90 | 145 | 2.0 | 10.0 | 0.00 | 0.00 | 0.00 | 23 | 1015.5 |
| 20260830184204 | 89 | 126 | 4.0 | 9.0 | 0.00 | 0.00 | 0.00 | 23 | 1015.7 |
| 20260830183704 | 89 | 84 | 4.0 | 9.0 | 0.00 | 0.00 | 0.00 | 23 | 1015.7 |
| 20260830183204 | 89 | 58 | 4.0 | 10.0 | 0.00 | 0.00 | 0.00 | 23 | 1015.7 |
| 20260830182704 | 89 | 65 | 4.0 | 10.0 | 0.00 | 0.00 | 0.00 | 23 | 1015.7 |
| 20260830182205 | 88 | 26 | 5.0 | 10.0 | 0.00 | 0.00 | 0.00 | 24 | 1015.9 |
| 20260830180704 | 88 | 94 | 4.0 | 11.0 | 0.00 | 0.00 | 0.00 | 23 | 1015.9 |
| 20260830180204 | 89 | 50 | 5.0 | 9.0 | 0.00 | 0.00 | 0.00 | 24 | 1015.9 |
| 20260830175705 | 88 | 80 | 4.0 | 9.0 | 0.00 | 0.00 | 0.00 | 23 | 1015.9 |
| 20260830175204 | 88 | 110 | 3.0 | 9.0 | 0.00 | 0.00 | 0.00 | 23 | 1015.9 |
| 20260830174204 | 88 | 9 | 4.0 | 9.0 | 0.00 | 0.00 | 0.00 | 23 | 1015.9 |
| 20260830173704 | 88 | 83 | 3.0 | 8.0 | 0.00 | 0.00 | 0.00 | 24 | 1016.0 |
| 20260830172704 | 88 | 72 | 4.0 | 9.0 | 0.00 | 0.00 | 0.00 | 23 | 1016.1 |
| 20260830172204 | 88 | 105 | 5.0 | 9.0 | 0.00 | 0.00 | 0.00 | 23 | 1016.0 |
| 20260830171704 | 88 | 99 | 3.0 | 9.0 | 0.00 | 0.00 | 0.00 | 23 | 1016.0 |
| 20260830170704 | 87 | 162 | 3.0 | 8.0 | 0.00 | 0.00 | 0.00 | 25 | 1016.0 |
| 20260830170205 | 86 | 130 | 3.0 | 8.0 | 0.00 | 0.00 | 0.00 | 27 | 1015.9 |
| 20260830165705 | 86 | 130 | 3.0 | 12.0 | 0.00 | 0.00 | 0.00 | 27 | 1016.0 |
| 20260830165204 | 86 | 122 | 3.0 | 12.0 | 0.00 | 0.00 | 0.00 | 29 | 1015.9 |
| 20260830164704 | 85 | 124 | 4.0 | 12.0 | 0.00 | 0.00 | 0.00 | 29 | 1015.9 |
| 20260830163704 | 85 | 333 | 2.0 | 4.0 | 0.00 | 0.00 | 0.00 | 29 | 1015.7 |
| 20260830163204 | 85 | 330 | 2.0 | 5.0 | 0.00 | 0.00 | 0.00 | 30 | 1015.7 |
| 20260830162704 | 84 | 329 | 2.0 | 5.0 | 0.00 | 0.00 | 0.00 | 32 | 1015.7 |
| 20260830161204 | 82 | 331 | 2.0 | 4.0 | 0.00 | 0.00 | 0.00 | 34 | 1015.9 |
| 20260830160704 | 82 | 331 | 2.0 | 4.0 | 0.00 | 0.00 | 0.00 | 34 | 1015.9 |
| 20260830160204 | 82 | 331 | 2.0 | 4.0 | 0.00 | 0.00 | 0.00 | 35 | 1015.9 |
| 20260830155705 | 81 | 329 | 1.0 | 3.0 | 0.00 | 0.00 | 0.00 | 35 | 1015.9 |
| 20260830155204 | 81 | 329 | 2.0 | 3.0 | 0.00 | 0.00 | 0.00 | 35 | 1015.9 |
| 20260830154704 | 81 | 329 | 1.0 | 3.0 | 0.00 | 0.00 | 0.00 | 35 | 1015.9 |
| 20260830154204 | 80 | 329 | 1.0 | 3.0 | 0.00 | 0.00 | 0.00 | 38 | 1016.0 |
| 20260830153704 | 79 | 329 | 1.0 | 4.0 | 0.00 | 0.00 | 0.00 | 38 | 1016.0 |
| 20260830153204 | 78 | 329 | 1.0 | 4.0 | 0.00 | 0.00 | 0.00 | 41 | 1016.0 |
| 20260830152704 | 78 | 358 | 1.0 | 4.0 | 0.00 | 0.00 | 0.00 | 43 | 1016.0 |
| 20260830152204 | 77 | 329 | 2.0 | 4.0 | 0.00 | 0.00 | 0.00 | 44 | 1016.1 |
| 20260830151704 | 76 | 329 | 2.0 | 4.0 | 0.00 | 0.00 | 0.00 | 45 | 1016.1 |
| 20260830151204 | 76 | 329 | 2.0 | 4.0 | 0.00 | 0.00 | 0.00 | 47 | 1016.1 |
| 20260830150704 | 75 | 329 | 3.0 | 4.0 | 0.00 | 0.00 | 0.00 | 49 | 1016.1 |
| 20260830150204 | 74 | 329 | 3.0 | 4.0 | 0.00 | 0.00 | 0.00 | 51 | 1016.2 |
| 20260830145705 | 73 | 329 | 3.0 | 4.0 | 0.00 | 0.00 | 0.00 | 52 | 1016.2 |
| 20260830145204 | 73 | 329 | 3.0 | 4.0 | 0.00 | 0.00 | 0.00 | 52 | 1016.1 |
| 20260830144704 | 73 | 329 | 3.0 | 4.0 | 0.00 | 0.00 | 0.00 | 53 | 1016.2 |
| 20260830144204 | 72 | 329 | 3.0 | 4.0 | 0.00 | 0.00 | 0.00 | 54 | 1016.1 |
| 20260830143704 | 72 | 329 | 3.0 | 4.0 | 0.00 | 0.00 | 0.00 | 54 | 1016.1 |
| 20260830143204 | 72 | 329 | 3.0 | 6.0 | 0.00 | 0.00 | 0.00 | 55 | 1016.1 |
| 20260830142704 | 71 | 329 | 3.0 | 6.0 | 0.00 | 0.00 | 0.00 | 55 | 1016.1 |
| 20260830142204 | 71 | 329 | 4.0 | 6.0 | 0.00 | 0.00 | 0.00 | 56 | 1016.0 |
| 20260830141704 | 71 | 329 | 4.0 | 6.0 | 0.00 | 0.00 | 0.00 | 56 | 1016.1 |
| 20260830141204 | 70 | 328 | 3.0 | 8.0 | 0.00 | 0.00 | 0.00 | 57 | 1016.0 |
| 20260830140704 | 70 | 328 | 4.0 | 8.0 | 0.00 | 0.00 | 0.00 | 57 | 1016.0 |
| 20260830135704 | 69 | 327 | 5.0 | 8.0 | 0.00 | 0.00 | 0.00 | 58 | 1016.0 |
| 20260830134704 | 69 | 331 | 4.0 | 5.0 | 0.00 | 0.00 | 0.00 | 60 | 1015.9 |
| 20260830134204 | 68 | 332 | 3.0 | 5.0 | 0.00 | 0.00 | 0.00 | 60 | 1015.9 |
| 20260830133704 | 68 | 332 | 3.0 | 5.0 | 0.00 | 0.00 | 0.00 | 59 | 1015.9 |
| 20260830133204 | 68 | 332 | 3.0 | 5.0 | 0.00 | 0.00 | 0.00 | 58 | 1015.7 |
| 20260830132704 | 68 | 332 | 3.0 | 4.0 | 0.00 | 0.00 | 0.00 | 57 | 1015.7 |
| 20260830132204 | 68 | 332 | 3.0 | 4.0 | 0.00 | 0.00 | 0.00 | 56 | 1015.6 |
| 20260830131704 | 68 | 332 | 3.0 | 4.0 | 0.00 | 0.00 | 0.00 | 55 | 1015.6 |
| 20260830131205 | 69 | 332 | 2.0 | 6.0 | 0.00 | 0.00 | 0.00 | 53 | 1015.6 |
| 20260830130705 | 69 | 332 | 3.0 | 6.0 | 0.00 | 0.00 | 0.00 | 53 | 1015.6 |
| 20260830130204 | 69 | 332 | 4.0 | 6.0 | 0.00 | 0.00 | 0.00 | 53 | 1015.6 |
| 20260830125204 | 69 | 332 | 4.0 | 6.0 | 0.00 | 0.00 | 0.00 | 53 | 1015.5 |
| 20260830124704 | 69 | 332 | 4.0 | 8.0 | 0.00 | 0.00 | 0.00 | 53 | 1015.5 |
| 20260830124204 | 69 | 332 | 5.0 | 8.0 | 0.00 | 0.00 | 0.00 | 52 | 1015.4 |
| 20260830123204 | 69 | 333 | 5.0 | 8.0 | 0.00 | 0.00 | 0.00 | 51 | 1015.3 |
| 20260830122704 | 70 | 333 | 5.0 | 8.0 | 0.00 | 0.00 | 0.00 | 50 | 1015.3 |
| 20260830122205 | 70 | 332 | 5.0 | 8.0 | 0.00 | 0.00 | 0.00 | 48 | 1015.3 |
| 20260830121204 | 71 | 336 | 4.0 | 6.0 | 0.00 | 0.00 | 0.00 | 46 | 1015.3 |
| 20260830120705 | 71 | 336 | 4.0 | 6.0 | 0.00 | 0.00 | 0.00 | 46 | 1015.3 |
| 20260830120205 | 71 | 336 | 5.0 | 6.0 | 0.00 | 0.00 | 0.00 | 46 | 1015.3 |
| 20260830115704 | 71 | 335 | 4.0 | 6.0 | 0.00 | 0.00 | 0.00 | 46 | 1015.3 |
| 20260830115204 | 71 | 334 | 4.0 | 6.0 | 0.00 | 0.00 | 0.00 | 46 | 1015.3 |
| 20260830114704 | 71 | 334 | 4.0 | 6.0 | 0.00 | 0.00 | 0.00 | 46 | 1015.3 |
| 20260830114204 | 71 | 334 | 4.0 | 6.0 | 0.00 | 0.00 | 0.00 | 46 | 1015.3 |
| 20260830113704 | 72 | 334 | 4.0 | 6.0 | 0.00 | 0.00 | 0.00 | 45 | 1015.3 |
| 20260830113204 | 72 | 334 | 4.0 | 5.0 | 0.00 | 0.00 | 0.00 | 45 | 1015.3 |
| 20260830112704 | 72 | 334 | 3.0 | 6.0 | 0.00 | 0.00 | 0.00 | 45 | 1015.3 |
| 20260830112204 | 72 | 334 | 4.0 | 6.0 | 0.00 | 0.00 | 0.00 | 45 | 1015.3 |
| 20260830111704 | 72 | 334 | 4.0 | 6.0 | 0.00 | 0.00 | 0.00 | 45 | 1015.3 |
| 20260830105704 | 71 | 331 | 4.0 | 6.0 | 0.00 | 0.00 | 0.00 | 48 | 1015.3 |
| 20260830105204 | 70 | 331 | 4.0 | 5.0 | 0.00 | 0.00 | 0.00 | 51 | 1015.3 |
| 20260830104706 | 70 | 331 | 3.0 | 5.0 | 0.00 | 0.00 | 0.00 | 52 | 1015.3 |
| 20260830104204 | 70 | 331 | 3.0 | 5.0 | 0.00 | 0.00 | 0.00 | 52 | 1015.2 |
| 20260830103704 | 70 | 331 | 3.0 | 5.0 | 0.00 | 0.00 | 0.00 | 53 | 1015.2 |